sat.trackr.live / text

‹ back to catalog

STARLINK-34104

NORAD 64102 · 2025-110G

PAYLOAD ACTIVE UNKNOWN

§ Identity

Operator
Country
US
Launch date
2025-05-23
Launch site
AFWTR
Launch vehicle
Mass (kg)
RCS (m²)

Purposes: comms

External: N2YO · Heavens-Above · Gunter

§ Orbital elements

Epoch: 2026-05-24T22:48:53.510976Z

Period
93.85 min
Inclination
53.1620°
Eccentricity
0.0000833
Mean motion
15.34396215 rev/d
Perigee alt
462.1 km
Apogee alt
463.3 km
Semi-major
6,840.9 km
B*
7.6691e-4
RAAN
32.1676°
Arg perigee
75.3742°
Mean anomaly
284.7353°
Rev number
5,756

§ Raw data

STARLINK-341041 64102U 25110G   26144.95061934  .00025620  00000+0  76691-3 0  99922 64102  53.1620  32.1676 0000833  75.3742 284.7353 15.34396215 57563

JSON: /api/v1/satellites/64102 · /tle

For live sub-satellite position, see the globe view (requires WebGL).

§ Visibility from observer

Set your observer location to see the next 7 days of passes ≥ 10°. The values pass through the URL so the page stays shareable.

No JS? Fill the form by hand. The geolocation button needs JavaScript.